Weather History for KGTB - October, 2013

Change the Weather History Date:

Monday, October 14, 2013

  Actual Average Record
Temperature  
Mean Temperature 54 °F -  
Max Temperature 62 °F 55 °F 80 °F (2014)
Min Temperature 45 °F 37 °F 28 °F (1999)
Degree Days  
Heating Degree Days 11    
Growing Degree Days 4 (Base 50)    
Moisture  
Dew Point 55 °F    
Average Humidity 94    
Maximum Humidity 100    
Minimum Humidity 68    
Precipitation  
Precipitation 0.22 in - - ()
Sea Level Pressure  
Sea Level Pressure 30.27 in    
Wind  
Wind Speed 7 mph (SW)    
Max Wind Speed 10 mph    
Max Gust Speed -    
Visibility 9 miles    
Events Rain    
Averages and records for this station are not official NWS values.
T = Trace of Precipitation, MM = Missing Value Source: NWS Daily Summary

Daily Weather History Graph

Daily Weather History Graph

Search for Another Location

Airport or City:

Trip Planner

Search our weather history database for the weather conditions in past years. The results will help you decide how hot, cold, wet, or windy it might be!

Date:

Astronomy

Oct. 14, 2013 Rise Set
Actual Time 7:16 AM EDT 6:20 PM EDT
Civil Twilight 6:47 AM EDT 6:49 PM EDT
Nautical Twilight 6:13 AM EDT 7:22 PM EDT
Astronomical Twilight 5:40 AM EDT 7:56 PM EDT
Moon 3:56 PM EDT (10/14) 2:21 AM EDT (10/14)
Length of Visible Light 12h 01m
Length of Day
11h 03m
Waxing Gibbous, 79% of the Moon is Illuminated
Oct 14
Waxing Gibbous
Oct 18
Full
Oct 26
Last Quarter
Nov 3
New
Nov 10
First Quarter

Hourly Weather History & Observations

Time (EDT) Temp. Windchill Dew Point Humidity Pressure Visibility Wind Dir Wind Speed Gust Speed Precip Events Conditions
12:58 AM 61.3 °F - 54.0 °F 77% 30.26 in 10.0 mi SW 8.1 mph - N/A   Overcast
1:03 AM 62.6 °F - 53.6 °F 72% 30.26 in 10.0 mi SW 6.9 mph - N/A   Overcast
1:24 AM 62.6 °F - 55.4 °F 77% 30.26 in 10.0 mi SW 9.2 mph - N/A   Light Drizzle
1:29 AM 62.6 °F - 55.4 °F 77% 30.26 in 5.0 mi SW 3.5 mph - N/A Rain Heavy Rain
1:34 AM 60.8 °F - 57.2 °F 88% 30.26 in 4.0 mi SW 5.8 mph - N/A Rain Light Rain
1:39 AM 59.0 °F - 55.4 °F 88% 30.26 in 7.0 mi SW 5.8 mph - N/A Rain Light Rain
1:49 AM 59.0 °F - 57.2 °F 94% 30.25 in 5.0 mi SW 4.6 mph - N/A Rain Rain
1:54 AM 59.0 °F - 57.2 °F 94% 30.25 in 5.0 mi SW 4.6 mph - N/A Rain Rain
1:58 AM 58.6 °F - 56.8 °F 94% 30.25 in 5.0 mi SSW 4.6 mph - 0.10 in Rain Rain
2:13 AM 59.0 °F - 57.2 °F 94% 30.25 in 9.0 mi South 5.8 mph - N/A Rain Light Rain
2:27 AM 59.0 °F - 59.0 °F 100% 30.25 in 10.0 mi South 5.8 mph - N/A   Overcast
2:40 AM 59.0 °F - 57.2 °F 94% 30.25 in 10.0 mi South 6.9 mph - N/A Rain Light Rain
2:50 AM 59.0 °F - 57.2 °F 94% 30.25 in 10.0 mi South 6.9 mph - N/A   Overcast
2:53 AM 59.0 °F - 57.2 °F 94% 30.25 in 10.0 mi South 6.9 mph - N/A   Light Drizzle
2:58 AM 58.5 °F - 57.6 °F 97% 30.25 in 10.0 mi South 6.9 mph - 0.02 in   Light Drizzle
3:03 AM 59.0 °F - 57.2 °F 94% 30.25 in 10.0 mi South 5.8 mph - N/A   Overcast
3:07 AM 59.0 °F - 57.2 °F 94% 30.25 in 10.0 mi South 5.8 mph - N/A   Light Drizzle
3:23 AM 57.2 °F - 57.2 °F 100% 30.25 in 10.0 mi South 4.6 mph - N/A   Overcast
3:26 AM 57.2 °F - 57.2 °F 100% 30.25 in 10.0 mi South 4.6 mph - N/A Rain Light Rain
3:58 AM 57.9 °F - 56.8 °F 96% 30.25 in 10.0 mi SSW 8.1 mph - 0.02 in Rain Light Rain
4:19 AM 57.2 °F - 57.2 °F 100% 30.25 in 10.0 mi SSW 6.9 mph - N/A   Overcast
4:58 AM 57.4 °F - 56.3 °F 96% 30.26 in 10.0 mi SSW 6.9 mph - 0.01 in   Overcast
4:59 AM 57.2 °F - 55.4 °F 94% 30.26 in 10.0 mi SW 5.8 mph - N/A Rain Light Rain
5:08 AM 57.2 °F - 55.4 °F 94% 30.26 in 10.0 mi SSW 8.1 mph - N/A   Overcast
5:45 AM 57.2 °F - 55.4 °F 94% 30.26 in 10.0 mi SSW 8.1 mph - N/A Rain Light Rain
5:58 AM 56.8 °F - 55.8 °F 96% 30.26 in 10.0 mi SSW 10.4 mph - 0.00 in   Light Drizzle
6:03 AM 57.2 °F - 55.4 °F 94% 30.26 in 8.0 mi SSW 9.2 mph - N/A Rain Rain
6:13 AM 57.2 °F - 55.4 °F 94% 30.26 in 10.0 mi SSW 8.1 mph - N/A Rain Light Rain
6:18 AM 57.2 °F - 55.4 °F 94% 30.26 in 7.0 mi SSW 8.1 mph - N/A Rain Light Rain
6:23 AM 57.2 °F - 55.4 °F 94% 30.26 in 6.0 mi SSW 8.1 mph - N/A Rain Light Rain
6:33 AM 55.4 °F - 55.4 °F 100% 30.26 in 10.0 mi SSW 8.1 mph - N/A   Light Drizzle
6:34 AM 55.4 °F - 55.4 °F 100% 30.26 in 10.0 mi SSW 8.1 mph - N/A   Overcast
6:39 AM 55.4 °F - 55.4 °F 100% 30.26 in 10.0 mi SSW 8.1 mph - N/A   Overcast
6:58 AM 56.1 °F - 56.1 °F 100% 30.27 in 10.0 mi SSW 6.9 mph - 0.03 in   Overcast
7:18 AM 55.4 °F - 55.4 °F 100% 30.26 in 10.0 mi SSW 8.1 mph - N/A   Overcast
7:58 AM 56.1 °F - 56.1 °F 100% 30.27 in 10.0 mi SSW 5.8 mph - N/A   Overcast
8:17 AM 55.4 °F - 55.4 °F 100% 30.28 in 8.0 mi SSW 4.6 mph - N/A   Light Drizzle
8:27 AM 55.4 °F - 55.4 °F 100% 30.28 in 2.0 mi SSW 6.9 mph - N/A Rain Light Rain
8:37 AM 55.4 °F - 55.4 °F 100% 30.28 in 4.0 mi South 5.8 mph - N/A Rain Light Rain
8:52 AM 55.4 °F - 55.4 °F 100% 30.28 in 4.0 mi South 6.9 mph - N/A   Drizzle
8:58 AM 55.8 °F - 55.8 °F 100% 30.28 in 5.0 mi South 8.1 mph - 0.03 in   Light Drizzle
9:14 AM 55.4 °F - 55.4 °F 100% 30.28 in 10.0 mi South 6.9 mph - N/A   Overcast
9:15 AM 55.4 °F - 55.4 °F 100% 30.28 in 9.0 mi South 6.9 mph - N/A   Light Drizzle
9:41 AM 55.4 °F - 55.4 °F 100% 30.29 in 10.0 mi South 6.9 mph - N/A   Overcast
9:58 AM 56.1 °F - 56.1 °F 100% 30.30 in 10.0 mi South 6.9 mph - 0.01 in   Overcast
10:08 AM 57.2 °F - 57.2 °F 100% 30.29 in 10.0 mi SSW 6.9 mph - N/A   Overcast
10:38 AM 57.2 °F - 57.2 °F 100% 30.29 in 10.0 mi SSW 6.9 mph - N/A   Overcast
10:58 AM 56.8 °F - 56.8 °F 100% 30.28 in 10.0 mi SSW 6.9 mph - N/A   Overcast
11:03 AM 57.2 °F - 57.2 °F 100% 30.29 in 10.0 mi WSW 6.9 mph - N/A   Overcast
11:13 AM 57.2 °F - 57.2 °F 100% 30.29 in 2.5 mi WSW 10.4 mph - N/A   Overcast
11:15 AM 57.2 °F - 57.2 °F 100% 30.29 in 4.0 mi WSW 9.2 mph - N/A   Light Drizzle
11:34 AM 57.2 °F - 57.2 °F 100% 30.29 in 10.0 mi West 6.9 mph - N/A   Overcast
11:58 AM 57.2 °F - 57.2 °F 100% 30.30 in 10.0 mi West 8.1 mph - 0.00 in   Overcast
12:03 PM 57.2 °F - 57.2 °F 100% 30.29 in 10.0 mi West 5.8 mph - N/A   Overcast
12:18 PM 57.2 °F - 57.2 °F 100% 30.29 in 10.0 mi West 9.2 mph - N/A   Overcast
12:58 PM 58.6 °F - 58.5 °F 99% 30.28 in 10.0 mi West 8.1 mph - N/A   Overcast
1:03 PM 59.0 °F - 57.2 °F 94% 30.28 in 10.0 mi WSW 8.1 mph - N/A   Overcast
1:43 PM 60.8 °F - 53.6 °F 77% 30.27 in 10.0 mi West 10.4 mph - N/A   Mostly Cloudy
1:53 PM 60.8 °F - 53.6 °F 77% 30.27 in 10.0 mi West 6.9 mph - N/A   Mostly Cloudy
1:58 PM 59.9 °F - 54.1 °F 81% 30.27 in 10.0 mi West 5.8 mph - N/A   Mostly Cloudy
2:58 PM 61.3 °F - 50.5 °F 68% 30.27 in 10.0 mi West 4.6 mph - N/A   Mostly Cloudy
3:58 PM 61.2 °F - 50.7 °F 69% 30.27 in 10.0 mi WSW 5.8 mph - N/A   Mostly Cloudy
4:58 PM 61.0 °F - 51.3 °F 70% 30.26 in 10.0 mi WSW 6.9 mph - N/A   Clear
5:58 PM 58.6 °F - 51.4 °F 77% 30.29 in 10.0 mi WSW 5.8 mph - N/A   Clear
6:58 PM 54.9 °F - 50.7 °F 86% 30.30 in 10.0 mi WSW 3.5 mph - N/A   Clear
7:58 PM 52.0 °F - 50.9 °F 96% 30.30 in 10.0 mi SW 3.5 mph - N/A   Clear
8:58 PM 50.7 °F - 50.4 °F 99% 30.31 in 10.0 mi SSW 3.5 mph - N/A   Clear
9:58 PM 47.7 °F - 47.7 °F 100% 30.31 in 10.0 mi SW 3.5 mph - N/A   Clear
10:58 PM 46.2 °F - 46.2 °F 100% 30.31 in 10.0 mi SW 2.3 mph - N/A   Partly Cloudy
11:58 PM 45.7 °F 44.4 °F 45.7 °F 100% 30.31 in 10.0 mi South 3.5 mph - N/A   Clear